Weather History for St. Paul Lake Elmo, MN

Change the Weather History Date:

Wednesday, April 2, 2014

  Actual Average (KSTP) Record (KSTP)
Temperature  
Mean Temperature 30 °F -  
Max Temperature 39 °F 48 °F 70 °F (2012)
Min Temperature 21 °F 30 °F 21 °F (2014)
Degree Days  
Heating Degree Days 35    
Moisture  
Dew Point 23 °F    
Average Humidity 69    
Maximum Humidity 93    
Minimum Humidity 52    
Precipitation  
Precipitation 0.00 in - - ()
Sea Level Pressure  
Sea Level Pressure 30.15 in    
Wind  
Wind Speed 5 mph (NE)    
Max Wind Speed 12 mph    
Max Gust Speed -    
Visibility 10 miles    
Events      
Averages and records for this station are not official NWS values.
T = Trace of Precipitation, MM = Missing Value Source: NWS Daily Summary

Daily Weather History Graph

Daily Weather History Graph

Search for Another Location

Airport:

Trip Planner

Search our weather history database for the weather conditions in past years. The results will help you decide how hot, cold, wet, or windy it might be!

Date:

Astronomy

Apr. 02, 2014 Rise Set
Actual Time 6:50 AM CDT 7:40 PM CDT
Civil Twilight 6:20 AM CDT 8:10 PM CDT
Nautical Twilight 5:45 AM CDT 8:45 PM CDT
Astronomical Twilight 5:08 AM CDT 9:22 PM CDT
Moon 8:27 AM CDT 11:12 PM CDT
Length of Visible Light 13h 49m
Length of Day
12h 50m
Waxing Crescent, 10% of the Moon is Illuminated
Apr 2
Waxing Crescent
Apr 7
First Quarter
Apr 15
Full
Apr 22
Last Quarter
Apr 29
New

Hourly Weather History & Observations

Time (CDT) Temp. Windchill Dew Point Humidity Pressure Visibility Wind Dir Wind Speed Gust Speed Precip Events Conditions
12:11 AM 28.4 °F 24.6 °F 23.0 °F 80% 30.12 in 10.0 mi NW 3.5 mph - N/A   Clear
12:31 AM 28.4 °F 23.3 °F 23.0 °F 80% 30.12 in 10.0 mi NNW 4.6 mph - N/A   Clear
12:51 AM 28.4 °F 23.3 °F 23.0 °F 80% 30.13 in 10.0 mi NNW 4.6 mph - N/A   Clear
1:11 AM 28.4 °F 24.6 °F 21.2 °F 74% 30.13 in 10.0 mi NNW 3.5 mph - N/A   Clear
1:31 AM 26.6 °F 20.0 °F 21.2 °F 80% 30.14 in 10.0 mi NNW 5.8 mph - N/A   Clear
1:51 AM 26.6 °F 21.2 °F 19.4 °F 74% 30.14 in 10.0 mi NNW 4.6 mph - N/A   Clear
2:11 AM 26.6 °F 21.2 °F 19.4 °F 74% 30.14 in 10.0 mi NNW 4.6 mph - N/A   Clear
2:31 AM 26.6 °F 22.6 °F 19.4 °F 74% 30.14 in 10.0 mi NNW 3.5 mph - N/A   Clear
2:51 AM 24.8 °F 20.5 °F 19.4 °F 80% 30.15 in 10.0 mi NNW 3.5 mph - N/A   Clear
3:11 AM 24.8 °F 16.9 °F 19.4 °F 80% 30.14 in 10.0 mi NNW 6.9 mph - N/A   Clear
3:31 AM 24.8 °F 19.1 °F 19.4 °F 80% 30.15 in 10.0 mi NNW 4.6 mph - N/A   Clear
3:51 AM 23.0 °F 17.0 °F 19.4 °F 86% 30.14 in 10.0 mi NNW 4.6 mph - N/A   Clear
4:11 AM 23.0 °F 18.4 °F 19.4 °F 86% 30.15 in 10.0 mi NNW 3.5 mph - N/A   Clear
4:31 AM 23.0 °F - 19.4 °F 86% 30.15 in 10.0 mi Calm Calm - N/A   Clear
4:51 AM 23.0 °F - 19.4 °F 86% 30.16 in 10.0 mi Calm Calm - N/A   Clear
5:11 AM 23.0 °F - 19.4 °F 86% 30.17 in 10.0 mi Calm Calm - N/A   Clear
5:31 AM 23.0 °F - 19.4 °F 86% 30.17 in 10.0 mi Calm Calm - N/A   Clear
5:51 AM 23.0 °F 18.4 °F 19.4 °F 86% 30.17 in 10.0 mi North 3.5 mph - N/A   Clear
6:11 AM 21.2 °F 16.4 °F 19.4 °F 93% 30.17 in 10.0 mi North 3.5 mph - N/A   Clear
7:51 AM 23.0 °F 18.4 °F 19.4 °F 86% 30.19 in 10.0 mi NNE 3.5 mph - N/A   Clear
8:11 AM 24.8 °F 20.5 °F 19.4 °F 80% 30.19 in 10.0 mi NE 3.5 mph - N/A   Clear
8:31 AM 26.6 °F 21.2 °F 19.4 °F 74% 30.20 in 10.0 mi East 4.6 mph - N/A   Clear
8:51 AM 26.6 °F 21.2 °F 19.4 °F 74% 30.21 in 10.0 mi East 4.6 mph - N/A   Clear
9:11 AM 28.4 °F 23.3 °F 19.4 °F 69% 30.21 in 10.0 mi East 4.6 mph - N/A   Clear
9:30 AM 30.2 °F 24.3 °F 21.2 °F 69% 30.21 in 10.0 mi East 5.8 mph - N/A   Clear
9:51 AM 30.2 °F 22.6 °F 21.2 °F 69% 30.21 in 10.0 mi East 8.1 mph - N/A   Clear
10:11 AM 30.2 °F 23.4 °F 21.2 °F 69% 30.21 in 10.0 mi East 6.9 mph - N/A   Clear
10:31 AM 32.0 °F 25.6 °F 21.2 °F 64% 30.21 in 10.0 mi ESE 6.9 mph - N/A   Clear
10:51 AM 32.0 °F 25.6 °F 19.4 °F 60% 30.21 in 10.0 mi East 6.9 mph - N/A   Clear
11:11 AM 32.0 °F 25.6 °F 19.4 °F 60% 30.20 in 10.0 mi East 6.9 mph - N/A   Clear
11:31 AM 32.0 °F 24.8 °F 21.2 °F 64% 30.20 in 10.0 mi East 8.1 mph - N/A   Clear
11:51 AM 33.8 °F 27.7 °F 21.2 °F 60% 30.20 in 10.0 mi ENE 6.9 mph - N/A   Clear
12:11 PM 33.8 °F 29.6 °F 21.2 °F 60% 30.20 in 10.0 mi ENE 4.6 mph - N/A   Clear
12:51 PM 35.6 °F 30.7 °F 23.0 °F 60% 30.19 in 10.0 mi East 5.8 mph - N/A   Clear
1:11 PM 35.6 °F 28.6 °F 23.0 °F 60% 30.19 in 10.0 mi ENE 9.2 mph - N/A   Clear
1:31 PM 35.6 °F 29.2 °F 23.0 °F 60% 30.19 in 10.0 mi ENE 8.1 mph - N/A   Clear
1:51 PM 35.6 °F 28.6 °F 23.0 °F 60% 30.18 in 10.0 mi ENE 9.2 mph - N/A   Clear
2:31 PM 37.4 °F 29.8 °F 24.8 °F 60% 30.16 in 10.0 mi ENE 11.5 mph - N/A   Clear
2:51 PM 37.4 °F 30.3 °F 24.8 °F 60% 30.16 in 10.0 mi NE 10.4 mph - N/A   Clear
3:11 PM 37.4 °F 30.3 °F 23.0 °F 56% 30.15 in 10.0 mi ENE 10.4 mph - N/A   Clear
3:31 PM 37.4 °F 30.3 °F 24.8 °F 60% 30.14 in 10.0 mi ENE 10.4 mph - N/A   Clear
3:51 PM 39.2 °F 33.0 °F 24.8 °F 56% 30.13 in 10.0 mi ENE 9.2 mph - N/A   Clear
4:11 PM 39.2 °F 33.0 °F 23.0 °F 52% 30.13 in 10.0 mi ENE 9.2 mph - N/A   Clear
4:31 PM 39.2 °F 32.5 °F 23.0 °F 52% 30.13 in 10.0 mi ENE 10.4 mph - N/A   Clear
5:11 PM 39.2 °F 32.5 °F 24.8 °F 56% 30.13 in 10.0 mi ENE 10.4 mph - N/A   Clear
5:31 PM 39.2 °F 32.5 °F 24.8 °F 56% 30.12 in 10.0 mi ENE 10.4 mph - N/A   Clear
5:51 PM 39.2 °F 32.5 °F 24.8 °F 56% 30.12 in 10.0 mi ENE 10.4 mph - N/A   Clear
6:11 PM 39.2 °F 33.0 °F 24.8 °F 56% 30.12 in 10.0 mi ENE 9.2 mph - N/A   Scattered Clouds
6:31 PM 37.4 °F 30.3 °F 24.8 °F 60% 30.11 in 10.0 mi ENE 10.4 mph - N/A   Mostly Cloudy
6:51 PM 37.4 °F 30.8 °F 24.8 °F 60% 30.10 in 10.0 mi NE 9.2 mph - N/A   Mostly Cloudy
7:10 PM 37.4 °F 31.4 °F 24.8 °F 60% 30.10 in 10.0 mi NE 8.1 mph - N/A   Overcast
7:31 PM 37.4 °F 31.4 °F 24.8 °F 60% 30.09 in 10.0 mi NE 8.1 mph - N/A   Overcast
7:51 PM 37.4 °F 30.3 °F 24.8 °F 60% 30.08 in 10.0 mi NE 10.4 mph - N/A   Overcast
8:10 PM 37.4 °F 32.8 °F 24.8 °F 60% 30.09 in 10.0 mi ENE 5.8 mph - N/A   Overcast
8:31 PM 37.4 °F 32.8 °F 24.8 °F 60% 30.09 in 10.0 mi ENE 5.8 mph - N/A   Overcast
8:51 PM 35.6 °F 29.9 °F 26.6 °F 70% 30.10 in 10.0 mi ENE 6.9 mph - N/A   Overcast
9:11 PM 35.6 °F 29.9 °F 26.6 °F 70% 30.09 in 10.0 mi NE 6.9 mph - N/A   Mostly Cloudy
9:31 PM 35.6 °F 29.2 °F 26.6 °F 70% 30.09 in 10.0 mi ENE 8.1 mph - N/A   Overcast
9:51 PM 35.6 °F 30.7 °F 26.6 °F 70% 30.09 in 10.0 mi ENE 5.8 mph - N/A   Overcast
10:11 PM 35.6 °F 29.9 °F 26.6 °F 70% 30.09 in 10.0 mi ENE 6.9 mph - N/A   Overcast
10:31 PM 35.6 °F 30.7 °F 26.6 °F 70% 30.09 in 10.0 mi NE 5.8 mph - N/A   Overcast
10:51 PM 35.6 °F 30.7 °F 26.6 °F 70% 30.09 in 10.0 mi ENE 5.8 mph - N/A   Overcast
11:11 PM 37.4 °F 31.4 °F 26.6 °F 65% 30.09 in 10.0 mi ENE 8.1 mph - N/A   Overcast
11:31 PM 35.6 °F 29.2 °F 26.6 °F 70% 30.08 in 10.0 mi ENE 8.1 mph - N/A   Overcast
11:51 PM 35.6 °F 29.2 °F 26.6 °F 70% 30.09 in 10.0 mi ENE 8.1 mph - N/A   Overcast